Weather in Recife

Brazil     8°03′38″S   34°52′17″W
temp.,
°C
wind,
m/s
gust,
m/s
humid.,
%
clouds,
%
prec.,
mm/h
press.,
hPa
HPBL,
m
5 august, thu
thu500:00+24s798393 3.2 1018624
03:00+24sse898370 8.4 1018596
06:00+24sse7982100 4.8 1019653
09:00+25se898022 8.3 1020844
12:00+25se8107936 2.3 1019905
15:00+25se810787 3.3 1018982
18:00+25sse8107816 0.4 1019954
21:00+25sse910787 1.2 1020915
6 august, fri
fri600:00+25sse9107694 0.3 1019929
03:00+25sse8107085 0.4 10181327
06:00+25sse8107334 0.1 10191178
09:00+25sse91072100 0.3 10211329
12:00+25sse8107199 0.0 10191288
15:00+25sse8117463 0.1 10181199
18:00+25sse710775 0.1 10191047
21:00+25sse910805 0.9 1020802
7 august, sat
sat700:00+24se8108164 3.1 1019726
03:00+24se9118148 6.2 1018839
06:00+24se10128015 1.3 1018946
09:00+25se10127814 2.3 10191040
12:00+25se1012765 0.8 10181112
15:00+25sse1011755 1.4 10171129
18:00+25sse911739 0.4 10181268
21:00+25sse9117158 0.5 10191267
8 august, sun
sun800:00+25sse9106767 0.0 10181565
03:00+25sse896148 0.0 10171531
06:00+25sse896532 0.0 10181083
09:00+25sse786620 0.0 10201170
12:00+25sse887314 0.1 10181026
15:00+25sse897717 0.1 1017891
18:00+25sse898036 0.4 1018796
21:00+24sse788316 1.4 1019659
9 august, mon
mon900:00+24sse788415 3.2 1018598
03:00+24sse798453 5.9 1017697
06:00+24sse788534 3.5 1018631
09:00+25se78849 6.9 1019674
12:00+25se788458 2.3 1018706
15:00+25se678659 6.1 1017485
18:00+25se568459 4.4 1018397
21:00+25se458341 8.1 1019332